RH
63 58 56 51 49 48 47 49 47 47 50 47 40 32 26 27 25 18 19 17 19 28 27 25 25 22 21 17 14 16 15 15 16 15 18 20 21 22 22 27 32 37 40 42 43 43 42 41 38 35 33 34 34 31 26 22 20 20 22 24 25 26 24 22 22 26 32 35 34 29 22 17 16 17 17 17 14 12 15 22 25 25 25 24 23 22
56 55 58 58 54 53 54 51 43 40 46 48 43 35 29 29 26 21 23 23 30 42 29 16 22 26 26 21 13 12 12 11 12 19 34 42 42 40 39 43 47 46 45 45 46 46 43 40 36 33 34 33 29 24 20 19 20 22 25 27 27 26 24 25 28 32 34 32 27 21 17 16 17 17 16 14 12 14 21 26 26 26 26 23 22 21
63 62 64 68 65 62 62 58 47 41 49 55 49 45 40 29 23 23 23 22 32 48 36 19 23 21 16 16 12 13 18 24 30 40 55 59 52 48 47 48 50 46 44 46 45 41 38 37 34 32 30 26 22 20 19 21 22 23 26 26 25 25 27 31 34 34 30 24 19 16 16 17 17 16 14 13 12 17 25 27 26 27 25 22 21 20
87 81 69 70 69 66 63 61 53 44 49 53 50 56 52 37 36 33 25 24 29 40 40 25 20 18 15 16 20 30 39 47 50 51 55 54 47 44 45 48 48 45 44 45 41 37 36 34 30 27 24 22 21 21 20 20 20 20 21 21 22 25 30 34 34 30 23 18 16 16 17 16 14 14 13 12 14 19 25 26 26 28 26 23 23 21
84 80 72 73 69 65 62 60 58 53 55 57 52 54 48 38 45 42 29 25 21 23 28 29 35 40 39 42 45 48 50 50 46 43 45 44 41 42 44 45 43 41 40 40 40 38 35 29 25 22 21 21 21 20 20 19 19 19 20 21 23 27 31 33 30 24 18 17 16 17 16 13 11 12 12 12 15 19 23 25 25 26 27 26 24 21
75 77 78 78 71 66 63 63 69 70 70 71 64 57 51 41 38 37 31 32 45 52 45 54 74 68 50 49 52 47 43 41 37 35 36 35 36 38 41 41 38 37 34 37 40 36 29 24 22 20 19 20 21 21 21 21 22 22 23 25 26 28 28 26 23 19 17 17 16 15 13 11 11 12 12 12 15 18 21 23 23 24 26 24 20 17
74 77 74 77 76 71 67 68 74 74 79 87 76 62 63 57 44 40 41 55 82 81 57 57 76 74 55 42 40 39 37 36 34 33 30 29 32 34 36 37 34 33 33 37 38 30 25 22 20 19 17 20 22 22 23 22 23 23 24 24 24 24 22 20 19 17 17 17 15 14 11 10 10 12 12 12 14 17 19 22 22 23 24 21 17 15
71 73 69 70 73 70 68 69 67 62 71 82 70 60 65 65 60 56 55 65 72 61 48 47 54 70 68 44 34 35 33 34 32 32 33 34 38 35 32 33 31 31 34 34 31 26 24 21 19 18 17 20 22 22 23 22 22 22 22 22 22 21 20 19 18 17 17 16 14 13 11 10 10 11 12 12 13 14 16 19 21 22 22 20 17 15
68 70 69 65 65 66 65 65 63 57 59 63 58 59 64 64 65 63 62 60 51 54 64 50 44 71 69 38 33 35 28 30 29 30 35 36 39 35 30 30 29 29 30 28 27 25 23 20 18 19 18 19 20 21 22 22 23 23 23 24 23 22 22 20 19 17 17 16 14 13 11 11 11 11 12 12 13 13 14 16 17 18 18 17 16 15
64 65 64 63 62 63 63 62 58 54 54 55 55 58 60 63 65 63 62 54 46 62 76 52 42 72 69 34 30 33 26 27 26 29 34 31 32 32 29 29 28 28 27 26 26 24 22 20 18 19 21 21 20 20 21 22 23 23 24 25 25 25 24 23 21 19 18 16 14 13 12 12 12 12 12 12 13 13 14 15 15 16 16 15 16 16
59 60 60 63 61 57 59 59 54 53 54 55 55 55 58 60 61 61 60 56 56 61 64 52 39 53 62 39 26 29 26 26 26 29 31 28 28 28 27 27 27 27 27 27 27 24 22 20 18 20 21 21 22 22 22 22 22 23 23 24 25 26 25 25 24 22 20 18 17 16 14 14 14 14 14 13 13 13 14 14 15 15 15 16 17 17
51 57 60 61 60 57 56 54 53 55 55 54 53 53 59 60 57 61 57 58 71 64 52 53 43 41 52 41 27 28 26 25 27 30 30 28 29 28 26 26 26 27 28 29 28 25 23 20 19 20 19 19 19 19 21 21 22 23 23 24 25 26 26 26 26 25 24 23 22 21 19 19 18 17 17 17 16 15 15 14 15 15 16 16 17 18
45 53 61 57 56 57 55 53 53 53 53 53 50 52 65 66 59 63 62 61 70 61 50 50 46 45 46 35 28 29 26 25 26 27 29 29 30 31 30 28 27 27 27 28 28 25 23 21 19 18 16 15 14 14 15 17 19 20 21 22 22 23 24 24 25 26 26 27 28 27 26 26 24 23 23 22 21 20 19 18 18 18 18 19 19 21
50 50 52 50 50 49 50 56 57 54 53 52 51 59 72 68 57 58 61 62 57 48 46 44 43 49 43 30 29 27 24 23 21 22 25 26 27 28 29 29 29 28 26 27 27 25 23 20 16 14 13 12 11 10 11 11 13 14 15 16 16 17 18 19 20 21 23 25 28 31 32 31 30 29 28 27 26 25 25 24 23 23 23 23 25 27
56 59 51 46 50 45 44 58 63 57 54 56 58 63 70 68 62 57 55 57 51 40 38 36 36 43 39 29 28 27 25 22 19 19 21 22 24 23 23 24 24 25 24 25 26 24 20 17 13 11 11 11 11 10 10 10 11 11 12 12 13 13 14 15 15 16 17 19 21 25 27 28 29 30 31 31 31 31 31 31 30 30 30 30 32 34
45 59 53 42 46 43 42 53 56 54 56 61 63 61 61 60 55 54 50 45 43 40 34 30 29 31 29 25 26 27 27 24 22 22 23 25 25 22 21 20 21 22 21 21 22 21 17 13 10 10 12 11 12 12 12 12 13 13 13 13 14 14 14 14 14 14 15 15 16 18 19 21 22 25 27 29 30 31 32 33 34 35 35 36 37 38
42 55 49 32 32 33 36 41 43 54 61 55 57 59 54 47 44 48 44 34 38 42 32 30 34 31 27 22 20 25 27 25 26 27 28 29 28 27 25 22 23 23 20 18 17 16 14 12 10 10 11 11 11 12 12 12 13 13 13 13 13 13 13 13 13 13 14 14 15 15 15 16 17 19 20 21 23 24 26 29 30 31 33 34 34 36
52 60 48 25 26 29 28 30 31 46 58 50 51 52 44 42 44 41 37 41 52 46 30 31 33 33 40 31 16 20 24 23 25 26 27 29 29 30 27 23 23 23 19 16 13 12 11 11 11 10 10 10 10 10 10 10 10 10 11 11 11 11 11 11 11 11 12 12 13 13 13 13 13 14 14 14 16 17 21 25 27 28 30 30 30 31
48 65 60 27 25 37 31 31 32 35 44 48 48 44 41 52 56 43 35 46 60 51 32 32 29 29 45 39 18 18 21 20 22 22 23 25 26 28 27 24 22 20 17 14 13 12 11 10 10 10 10 10 10 11 13 14 13 12 11 10 11 11 11 11 12 14 15 15 14 13 14 14 13 13 13 13 13 13 17 22 28 34 36 36 35 34
43 60 75 45 31 42 37 36 45 44 40 40 41 38 38 46 52 47 35 38 59 60 43 47 54 42 36 32 21 20 21 19 21 20 19 21 22 23 25 23 22 21 20 18 17 15 12 11 9 9 10 10 11 14 17 19 20 19 17 16 16 16 16 18 20 23 25 24 22 19 18 18 19 19 18 18 18 18 18 20 27 37 44 51 55 53
46 49 73 60 36 38 45 48 56 60 53 43 40 41 38 37 39 41 36 29 45 52 36 52 80 55 23 22 22 22 23 21 20 19 18 19 20 21 22 22 22 22 21 20 20 19 17 14 12 11 12 13 14 18 20 23 28 30 28 26 24 23 24 27 30 32 33 34 33 30 28 27 27 28 28 28 28 29 29 28 29 36 46 58 67 65
54 49 60 60 44 43 57 59 52 55 57 50 47 45 40 38 32 38 47 31 27 35 28 46 77 56 22 21 23 23 25 22 21 22 20 20 22 23 23 22 22 22 21 20 20 21 20 18 17 17 18 19 21 23 25 31 39 41 37 35 33 32 34 36 38 40 41 43 43 42 41 39 39 39 40 40 41 42 44 44 43 42 45 50 53 51
62 59 58 62 61 59 61 57 48 47 48 47 49 46 39 36 31 44 63 44 25 32 29 33 56 49 28 24 25 29 31 25 22 24 23 24 25 28 27 24 24 23 23 24 23 23 23 21 21 20 21 24 25 29 33 39 46 47 43 40 40 40 40 41 42 43 43 45 46 47 48 48 49 49 48 48 49 50 52 55 56 55 53 52 50 48
65 66 64 66 68 63 57 55 51 46 42 39 41 39 35 36 34 42 56 43 28 36 40 45 59 51 33 29 31 34 36 33 28 25 26 28 27 28 27 25 26 26 25 27 27 27 28 27 27 27 26 27 28 32 38 42 47 49 47 45 44 44 43 42 42 42 42 43 45 46 48 50 53 55 56 56 55 56 57 59 61 62 62 62 60 59
62 62 65 68 68 59 50 50 47 41 40 39 37 35 34 39 36 36 44 40 35 41 44 56 75 65 43 36 36 37 38 37 34 31 31 31 29 29 28 25 26 26 27 29 29 31 33 32 33 33 33 34 34 36 39 42 45 47 47 47 47 46 45 44 44 44 44 45 46 48 49 50 52 55 58 61 61 61 63 64 66 67 67 67 66 66
59 58 61 63 60 52 43 43 44 43 42 39 38 39 42 44 40 40 46 43 44 48 40 47 75 76 54 41 39 41 41 39 38 38 37 36 36 37 36 33 29 25 25 28 31 36 39 40 40 38 37 38 38 39 40 42 44 45 46 48 48 49 50 50 51 51 52 54 55 57 58 57 58 58 60 63 64 64 64 65 68 70 71 72 72 72
59 57 60 60 58 59 60 57 51 47 44 40 39 41 45 48 44 45 50 46 50 59 49 45 61 66 56 49 45 42 41 42 44 44 43 43 43 42 43 43 41 36 31 27 30 39 46 50 50 47 44 42 41 42 43 45 47 48 51 53 55 57 58 59 60 61 63 65 68 70 71 71 69 67 67 68 69 69 69 67 67 68 71 74 76 78
60 57 60 64 66 70 74 69 55 44 42 43 43 43 45 48 47 49 54 53 55 62 60 51 49 51 53 53 51 47 44 44 47 47 47 49 49 48 49 49 51 51 47 40 40 45 52 58 60 59 56 52 50 50 51 53 56 58 60 62 63 65 67 68 69 70 72 74 76 78 79 80 80 78 77 76 76 76 75 74 73 72 73 73 75 79
62 60 60 63 65 66 67 63 53 44 42 44 44 44 44 45 48 51 53 55 55 57 62 59 47 46 48 47 51 53 47 45 48 49 51 54 55 55 56 55 57 60 60 58 56 57 60 62 64 65 64 61 60 60 62 65 67 67 67 67 67 69 70 72 73 73 74 76 77 79 80 81 82 83 83 84 85 85 85 84 83 81 80 78 77 80
62 61 61 61 61 63 62 57 52 46 43 45 46 45 42 41 45 49 50 54 53 51 56 54 43 41 44 43 47 49 43 43 47 49 53 56 57 59 60 60 62 65 66 66 65 65 65 65 67 67 67 66 67 67 69 71 70 70 69 68 69 71 72 72 73 72 73 74 75 76 77 77 78 79 82 85 88 91 92 94 93 91 89 87 86 86
61 61 61 61 59 59 59 55 50 46 47 50 49 45 40 35 36 42 45 48 49 49 51 46 38 41 44 41 42 42 38 39 42 45 51 56 59 62 63 63 65 66 66 67 68 69 68 67 69 69 68 68 69 69 69 69 68 67 67 70 72 72 72 71 71 72 73 73 74 74 74 74 75 75 76 80 83 86 90 94 98 98 96 93 93 93
61 60 61 63 59 54 55 53 50 53 58 57 51 47 43 37 32 34 38 43 48 51 51 43 39 48 52 45 43 46 43 41 41 42 48 56 61 64 64 65 66 66 66 66 66 68 69 70 71 70 70 69 68 68 67 66 66 67 69 73 74 71 70 69 68 69 70 69 70 71 70 70 69 68 68 70 73 77 81 86 92 96 96 94 94 95
60 62 61 62 61 57 55 54 54 59 62 56 53 53 49 41 34 29 29 34 40 47 50 49 50 59 59 47 42 47 46 43 44 45 49 56 62 64 65 65 63 63 64 64 66 70 72 73 73 71 69 69 67 67 67 67 69 72 74 74 70 66 65 63 62 60 60 60 61 62 63 63 62 62 61 61 63 66 70 75 82 88 91 92 94 94
60 63 61 61 64 62 58 58 61 62 58 54 59 61 54 44 37 29 25 27 32 37 44 49 51 53 51 44 42 46 45 42 47 53 55 59 65 67 65 63 60 60 60 61 67 74 77 75 72 69 67 67 67 67 67 70 73 75 73 68 62 60 59 56 54 52 51 51 51 51 53 55 56 57 57 57 58 57 59 63 68 74 80 83 88 92
61 63 62 64 65 62 60 65 67 61 56 60 67 68 62 57 47 34 27 28 30 32 39 45 48 48 50 49 48 47 44 44 52 59 61 64 68 67 62 59 59 59 59 60 65 73 78 74 68 66 66 66 66 67 68 69 70 70 65 59 55 54 52 50 50 48 46 44 42 42 43 44 48 52 54 58 59 57 62 67 66 68 71 72 79 89
65 64 62 63 63 60 62 68 65 58 58 66 72 71 69 68 61 51 46 47 48 51 57 62 64 65 65 62 59 56 55 57 62 65 65 65 66 63 58 58 60 62 62 63 64 69 72 69 66 67 68 68 69 68 66 65 65 63 57 53 51 50 49 49 48 45 43 40 38 37 36 36 38 42 46 51 52 52 58 62 59 59 63 66 71 81
67 68 65 63 62 60 63 67 63 60 63 67 69 70 72 71 68 65 63 63 64 66 68 70 71 70 70 69 69 69 68 68 68 67 65 62 62 62 60 59 62 65 67 66 65 66 67 66 67 68 70 71 71 67 64 62 61 58 52 49 48 48 49 49 48 46 44 43 41 39 38 35 33 32 33 36 39 42 45 46 46 46 49 55 61 68
68 70 68 67 66 64 65 69 68 64 62 62 64 68 70 71 71 70 66 66 67 65 64 65 64 64 65 67 69 70 70 68 66 64 63 61 61 63 63 64 67 69 70 69 67 67 67 66 68 69 70 70 68 64 62 61 59 54 49 47 47 48 50 50 50 49 49 48 47 46 44 42 38 34 31 29 30 34 37 40 43 42 40 43 49 57
74 71 69 69 70 69 67 69 71 67 59 59 66 71 71 71 74 73 70 70 70 67 65 65 64 64 67 68 69 70 69 67 65 66 67 65 64 66 68 71 73 74 73 72 70 69 68 68 69 69 68 66 65 63 62 60 56 51 47 47 47 49 51 51 51 51 50 50 50 49 49 48 46 42 37 31 27 27 29 32 38 42 43 42 41 45
84 77 75 72 70 70 69 67 69 67 60 58 66 72 71 72 75 74 73 73 71 68 68 68 66 67 69 70 71 72 71 68 67 69 70 67 68 71 73 76 78 76 76 77 75 71 69 69 69 67 66 66 66 65 63 60 56 52 49 48 49 51 53 54 53 52 51 50 50 50 51 52 52 50 45 38 30 24 21 22 26 33 40 42 42 39
91 84 80 76 72 72 71 69 69 68 63 62 67 70 70 72 73 73 73 73 71 72 74 72 70 70 70 70 71 71 70 69 69 70 70 69 71 74 76 79 79 77 80 85 81 73 69 71 68 64 66 70 69 66 64 62 59 56 54 53 53 54 54 54 54 55 55 55 54 51 50 51 54 55 52 46 38 26 18 15 15 18 23 29 35 36
95 91 84 79 77 74 71 71 73 71 65 64 67 68 68 70 72 75 79 78 74 75 76 73 72 73 72 72 72 71 70 70 70 71 71 71 72 73 75 78 78 80 87 90 82 73 71 72 67 64 67 71 69 68 66 64 63 62 61 58 56 55 55 55 57 59 60 61 57 51 50 51 54 57 56 51 43 31 20 13 9 9 11 13 17 22
95 96 91 85 81 75 71 71 71 68 63 60 61 66 70 73 77 83 85 78 73 75 77 75 76 76 75 74 74 73 72 71 71 72 71 71 72 73 75 78 83 89 94 92 84 76 71 69 68 68 70 72 71 70 68 65 65 65 64 63 62 61 60 59 57 56 56 55 52 49 49 51 54 58 57 53 45 34 23 15 9 7 7 7 8 9
94 97 97 94 86 77 74 72 65 58 56 58 65 76 82 79 79 84 83 76 74 77 79 77 77 78 77 77 76 74 74 73 73 73 72 71 73 75 77 80 84 90 94 94 88 79 71 71 75 74 72 73 72 70 67 65 64 63 62 63 62 60 58 53 49 49 49 48 48 49 50 52 55 57 56 52 46 36 25 18 13 10 9 8 8 8
87 89 95 98 95 89 85 78 68 65 68 72 81 89 88 82 79 79 77 75 77 81 81 80 80 80 79 78 76 75 73 72 72 74 73 73 72 74 79 83 83 85 90 92 87 76 71 77 80 75 72 73 72 69 66 65 64 63 61 60 58 55 53 49 47 48 48 47 48 49 50 54 56 57 55 50 45 37 28 22 17 15 14 12 11 11
74 83 94 98 98 98 95 88 84 85 84 82 84 88 86 84 83 78 72 73 77 79 80 80 80 80 79 77 75 74 73 72 72 73 73 72 71 71 78 86 89 89 90 86 78 72 72 77 78 74 74 78 76 72 70 68 67 65 62 59 57 54 52 51 50 49 48 48 49 49 51 54 56 56 53 48 42 35 29 25 22 19 17 16 14 13
67 78 89 92 94 98 95 90 91 91 85 81 84 87 88 89 86 79 75 77 78 79 79 79 78 78 76 73 72 73 73 71 70 70 69 68 68 69 74 81 84 85 83 77 72 70 73 76 75 74 78 84 83 79 76 72 68 65 62 59 57 54 53 52 52 50 49 49 49 50 52 54 55 54 49 43 38 32 28 25 23 20 17 16 14 13
67 75 83 86 89 93 92 91 93 93 91 90 90 88 87 86 83 79 77 78 78 79 78 76 75 74 72 70 71 72 70 67 65 64 65 65 66 68 71 74 76 77 77 76 74 74 75 76 76 77 84 91 90 84 78 73 68 65 62 59 56 54 53 53 52 49 48 48 49 50 53 54 53 50 44 38 33 30 27 25 22 19 16 14 13 12
72 78 84 84 85 88 88 90 93 92 89 88 87 84 82 81 79 78 78 79 79 80 77 75 75 74 72 71 71 68 66 64 61 61 66 72 75 75 74 76 77 78 78 77 76 75 76 77 79 83 90 94 90 82 76 72 67 64 60 56 53 51 50 50 49 47 48 49 48 49 51 52 49 44 38 34 30 26 25 23 19 15 13 11 10 9
80 79 80 82 86 90 88 87 89 89 86 83 83 83 82 83 83 81 80 82 83 81 78 77 77 76 75 73 70 66 63 61 62 67 75 80 80 77 76 78 80 79 79 79 78 77 79 81 84 87 90 87 81 75 70 66 61 58 54 51 48 47 48 49 49 49 50 49 47 47 48 46 42 38 33 29 26 24 21 17 14 12 10 9 8 8
86 80 76 76 78 80 82 87 91 91 87 83 83 85 85 86 88 86 83 86 88 84 81 80 79 78 77 73 69 65 64 65 71 77 79 75 72 73 76 79 80 80 81 82 82 83 85 87 86 84 79 72 68 65 61 57 53 51 49 48 47 48 49 49 50 52 51 48 45 45 44 40 36 32 29 25 22 19 15 12 10 9 9 9 8 8
Wind_Speed
4 3 4 6 7 7 6 6 7 7 7 8 8 8 8 8 7 7 7 8 8 7 6 5 5 3 3 3 4 4 4 5 5 4 5 5 5 5 6 7 8 9 9 9 9 9 8 7 8 9 10 10 10 10 10 10 10 9 9 8 7 7 8 8 9 8 8 8 9 10 11 11 11 10 11 12 12 12 11 11 13 13 13 13 15 16
5 5 5 5 6 6 6 7 7 7 7 7 8 7 7 7 6 6 6 6 6 5 4 4 4 2 2 3 4 5 6 6 6 6 7 6 5 5 6 7 8 8 9 9 9 8 8 8 10 10 10 10 10 10 10 10 9 9 8 7 6 6 7 7 7 7 7 8 10 10 10 10 10 10 11 12 12 11 11 12 13 13 13 14 15 16
6 5 4 3 3 4 6 6 6 6 6 7 7 7 6 6 5 4 4 4 5 4 3 3 3 3 4 5 5 6 6 6 6 7 8 6 6 6 7 7 8 8 9 9 9 8 9 10 10 10 9 9 9 9 9 9 8 7 6 6 6 5 5 5 6 7 8 9 9 9 9 9 10 11 12 12 11 10 10 12 13 13 13 14 15 17
7 4 4 3 2 4 5 6 6 6 6 6 7 7 6 5 4 4 3 3 3 2 2 2 3 4 5 5 6 7 6 6 7 8 7 5 6 7 7 7 8 9 10 10 9 10 11 10 9 9 9 9 9 8 8 7 7 7 7 6 6 6 5 6 7 8 9 9 9 8 8 9 11 12 13 12 11 10 11 12 13 14 14 15 17 18
8 5 5 4 2 4 6 7 6 6 6 6 6 6 5 5 4 4 3 3 2 2 2 3 1 3 6 6 7 7 7 7 8 9 7 5 6 8 8 8 9 10 10 10 10 10 10 8 8 9 9 9 8 8 8 8 8 8 8 8 8 7 7 7 8 9 9 9 9 9 10 11 12 13 13 12 11 10 11 12 13 14 15 17 18 19
10 8 7 5 4 5 7 7 6 5 6 5 4 4 4 4 4 4 4 3 3 3 4 3 4 5 7 7 6 7 7 7 8 9 7 7 8 8 8 9 9 9 10 9 9 8 8 8 9 10 10 9 8 8 9 9 9 9 9 9 8 8 8 9 9 10 10 11 10 10 11 12 12 13 13 12 10 10 11 12 14 15 16 18 19 20
9 8 7 6 6 6 7 7 6 6 6 5 4 3 4 4 5 5 5 5 4 3 4 5 5 6 7 7 7 7 7 8 9 9 8 7 8 8 8 8 9 9 9 9 8 7 7 9 10 10 10 9 8 9 9 10 10 10 10 9 9 9 9 10 11 11 12 12 11 11 11 12 13 13 13 12 11 11 11 12 14 16 17 19 20 21
8 8 6 7 7 7 8 10 9 7 7 6 5 5 4 4 5 6 5 6 5 5 7 7 7 6 5 7 9 8 8 8 9 9 8 7 7 8 8 8 9 10 10 10 9 8 8 8 9 9 10 9 9 9 10 10 10 10 10 10 10 10 10 11 11 12 12 12 12 11 12 12 13 13 13 13 12 12 12 13 15 16 18 20 21 22
8 8 7 7 7 7 8 10 9 7 6 7 7 6 6 6 7 7 6 6 6 7 8 8 9 6 5 8 10 9 9 9 10 10 8 7 7 7 8 8 9 10 10 10 9 8 8 8 8 9 9 10 10 10 10 10 11 11 11 11 11 11 11 12 12 12 12 11 11 12 12 13 14 14 14 15 15 14 15 15 16 17 19 20 21 22
8 8 8 7 7 8 7 7 7 6 6 7 8 8 8 8 8 7 6 5 5 6 7 8 9 6 5 9 10 9 9 10 10 10 8 8 7 7 8 9 9 10 10 9 8 7 7 7 7 8 9 9 10 10 10 11 11 11 11 12 12 12 12 12 13 12 12 11 11 12 12 13 14 15 15 16 16 16 16 16 17 18 18 20 21 21
7 7 8 6 7 8 7 6 6 7 7 6 7 8 8 8 8 6 6 4 4 6 7 7 7 5 5 8 8 8 9 9 9 10 9 8 8 8 8 8 9 9 8 8 8 7 6 7 7 8 8 9 9 10 10 11 11 12 12 12 12 13 13 13 13 13 13 12 12 12 13 13 14 15 16 16 17 17 17 17 18 18 19 19 20 20
7 6 6 6 7 7 6 6 6 7 8 7 7 8 8 8 7 6 6 5 4 6 8 6 5 5 6 7 8 8 9 8 9 9 8 8 8 8 7 7 7 7 7 7 7 7 7 7 8 8 9 9 10 10 10 10 11 12 12 13 13 13 14 13 13 13 13 13 14 14 14 14 15 15 16 16 17 17 18 18 18 19 19 20 20 20
7 6 5 6 6 5 5 5 5 6 8 7 7 8 7 6 6 6 6 5 5 6 7 5 4 5 7 7 7 8 8 8 8 8 8 8 8 7 7 6 6 6 6 6 7 7 7 8 9 10 10 11 11 11 11 11 11 12 13 13 14 14 15 15 14 14 14 14 14 14 15 15 16 16 16 17 17 18 18 18 19 19 20 20 20 20
6 6 6 5 5 5 4 5 5 6 7 6 6 7 6 5 6 5 5 5 6 7 6 4 3 6 8 8 8 8 8 8 7 7 7 6 7 6 6 6 6 6 6 7 7 8 8 9 10 11 11 12 13 13 13 13 13 13 13 14 15 15 16 16 16 15 15 15 15 15 16 16 16 17 17 18 18 18 18 19 20 20 20 20 21 21
7 7 6 6 5 5 5 5 5 5 5 5 4 5 5 6 6 5 5 6 7 7 6 5 6 8 8 8 9 9 9 8 7 7 6 6 6 6 6 6 6 6 6 8 8 8 8 9 10 11 12 13 13 14 14 14 14 14 14 15 15 16 16 17 16 16 16 16 16 16 16 17 17 17 18 18 18 19 19 20 20 21 21 22 22 22
7 7 7 7 6 5 5 4 4 5 4 4 2 3 5 5 5 5 6 7 7 7 7 7 8 8 8 7 8 9 9 8 8 7 7 6 6 6 6 6 6 6 6 7 7 7 8 9 10 11 12 12 13 13 13 14 14 14 14 15 16 16 17 17 17 17 17 17 17 17 17 18 18 18 18 18 19 19 19 20 20 21 22 22 23 24
7 7 8 8 7 6 5 4 4 4 4 4 3 3 4 4 4 4 5 6 6 6 6 7 7 7 7 8 8 8 8 8 8 7 7 7 7 7 6 6 6 6 6 6 6 6 6 7 8 9 10 11 12 12 12 13 13 14 14 15 15 16 16 17 17 17 18 18 18 18 18 18 18 18 18 18 19 19 19 20 20 21 21 22 23 24
9 8 9 9 7 6 5 4 4 5 5 5 4 4 4 4 3 3 4 5 5 5 5 6 6 6 7 7 7 7 7 7 8 8 7 7 7 7 7 7 7 6 6 6 5 6 6 6 7 7 8 9 10 11 12 13 13 14 14 15 15 16 16 17 17 18 18 19 19 19 18 18 18 18 18 18 19 19 20 20 21 21 21 22 22 23
11 9 8 9 8 6 5 5 6 6 5 5 5 5 6 5 4 2 3 4 4 4 4 5 5 5 5 5 5 7 7 7 8 8 8 7 7 6 6 7 7 7 6 6 6 6 6 6 6 6 8 9 10 11 12 13 14 14 14 15 15 16 17 17 18 19 19 19 19 19 19 19 19 19 19 19 20 20 21 21 21 22 22 22 23 24
12 10 8 9 9 7 6 6 6 6 4 4 6 7 6 6 6 5 4 5 5 3 3 5 4 2 3 4 4 6 6 7 7 7 7 7 6 6 5 6 6 7 7 6 6 6 6 6 6 7 8 9 10 11 13 14 14 15 15 15 16 16 17 18 19 19 20 21 20 20 20 20 20 20 20 20 21 21 21 22 22 23 23 24 24 25
14 12 10 11 11 9 7 7 7 6 5 5 6 7 7 7 8 7 5 4 5 4 3 4 3 1 2 3 4 4 4 5 6 6 6 6 5 5 4 4 5 6 6 7 7 7 7 7 7 8 8 9 10 11 12 13 14 15 16 16 16 17 17 18 19 20 20 21 21 21 21 21 21 21 21 21 22 22 22 22 22 23 24 24 25 26
16 14 13 11 10 9 8 8 8 8 8 7 6 8 8 8 9 8 5 5 5 4 5 4 2 2 2 3 3 3 3 3 4 5 5 5 4 4 3 3 4 5 5 6 6 7 8 8 8 9 10 10 10 11 11 12 14 15 15 16 16 17 17 18 19 19 20 20 21 21 22 22 22 22 22 22 23 23 23 23 23 23 23 24 25 26
16 15 14 13 11 10 11 10 9 9 9 9 8 8 9 9 10 8 6 7 7 5 5 4 2 2 2 2 2 3 2 2 3 3 3 4 4 4 4 4 4 5 5 6 6 7 8 8 9 10 10 11 12 12 12 13 14 15 15 15 16 17 18 18 19 19 20 20 21 22 22 23 23 23 23 23 23 23 24 24 24 24 24 24 25 26
18 18 17 15 13 13 14 13 13 12 10 9 8 8 8 9 10 8 7 9 9 7 5 3 1 3 4 4 3 1 1 1 1 2 2 3 4 5 6 6 6 6 6 7 7 8 9 9 9 10 11 12 12 13 14 14 15 15 15 15 16 17 18 19 19 20 20 21 21 22 22 23 24 24 24 24 24 24 24 25 25 26 26 26 26 26
21 21 19 17 16 17 17 15 15 12 8 7 8 8 8 8 8 8 8 10 10 8 7 5 2 5 5 5 4 2 1 1 1 2 3 4 6 7 8 9 9 8 8 8 9 9 10 10 10 11 12 12 13 14 15 15 16 16 16 16 17 18 18 19 20 20 21 22 23 23 23 24 24 24 25 25 25 25 25 25 26 26 27 27 27 28
22 21 20 18 17 16 15 13 12 10 8 9 10 9 8 8 9 9 9 10 10 8 8 6 4 6 6 5 6 5 3 3 2 3 4 6 7 9 10 10 10 11 10 10 10 10 11 12 12 12 12 13 14 14 15 16 17 17 18 18 18 19 19 20 20 21 22 23 24 25 25 25 25 25 25 25 26 26 26 26 27 27 28 28 28 29
25 23 22 19 16 14 11 10 12 13 12 13 13 12 11 10 11 11 9 9 10 9 8 7 6 6 6 6 6 6 6 5 5 5 6 7 9 10 11 11 11 12 12 11 11 11 12 13 14 14 14 14 14 15 16 16 17 18 18 19 20 20 21 21 22 23 23 24 25 26 26 26 26 26 26 27 27 27 27 27 28 28 29 29 29 29
27 24 22 21 19 16 13 12 13 13 12 12 14 14 14 13 13 13 11 10 10 9 7 7 6 5 6 6 6 7 7 8 8 8 8 9 10 11 12 13 13 13 13 12 12 13 14 15 15 15 15 15 15 16 16 17 17 18 19 20 21 21 22 23 23 24 25 25 26 27 27 27 27 27 28 28 29 29 29 29 29 30 30 30 30 30
29 26 24 23 22 19 16 15 15 14 12 12 13 13 14 15 15 14 13 13 12 10 8 8 7 6 7 7 6 7 8 9 10 10 10 10 11 12 13 14 15 15 14 14 14 14 15 15 16 15 15 15 16 16 17 17 17 18 19 20 21 23 24 25 25 26 27 27 28 28 28 28 28 28 29 29 29 30 30 31 31 31 31 31 31 30
30 29 26 24 23 22 20 19 17 16 14 13 12 13 14 15 16 16 16 15 14 12 10 9 8 7 8 7 7 9 9 10 11 11 11 11 11 11 12 13 14 14 14 15 15 15 16 16 16 16 15 16 16 17 17 17 18 19 20 21 23 24 26 27 27 28 28 28 28 28 29 29 29 29 29 29 29 30 30 30 31 32 32 32 32 31
32 31 28 26 25 24 23 22 19 16 15 14 14 14 14 15 16 17 17 16 14 13 12 10 8 8 9 8 8 10 10 10 11 11 12 11 11 10 11 12 13 14 14 15 16 17 17 17 16 16 16 17 17 17 18 18 19 20 21 23 24 26 27 28 28 28 28 28 29 29 29 30 30 30 30 30 30 30 30 30 30 31 32 32 32 32
35 34 30 28 27 26 24 22 19 16 16 17 15 13 13 15 16 17 17 17 16 15 14 12 9 10 11 10 10 12 13 12 12 12 11 11 10 11 11 12 13 15 15 16 17 17 17 17 16 17 18 18 19 19 19 20 21 22 23 24 26 27 27 27 27 28 28 29 29 30 30 31 31 31 31 31 31 31 31 31 31 31 31 32 32 32
38 36 33 31 29 27 25 22 19 18 19 19 14 12 13 15 17 18 18 17 17 16 14 13 12 13 13 12 12 14 15 15 14 13 12 11 12 13 14 15 16 16 16 17 17 17 16 16 17 18 19 20 20 20 21 21 22 23 24 26 27 27 27 27 28 28 29 30 31 31 32 32 33 33 32 32 32 32 33 32 32 32 32 31 31 31
39 37 36 33 30 30 27 22 20 23 23 18 12 11 13 14 15 18 18 17 17 16 14 14 14 14 14 14 14 15 16 16 16 15 13 12 15 17 17 17 18 18 18 18 18 17 16 17 18 19 20 21 21 21 21 22 22 23 24 25 26 26 26 27 28 29 30 31 32 33 33 34 34 34 34 34 33 34 34 34 33 33 33 32 31 31
39 39 38 34 32 32 29 25 26 27 22 14 10 10 10 10 13 16 16 16 16 14 13 13 14 14 15 16 15 15 16 17 16 15 14 14 17 19 20 20 20 21 20 20 19 18 18 19 20 20 21 22 22 22 22 22 22 22 23 24 25 25 26 27 28 30 31 33 34 35 35 35 36 36 36 36 36 36 35 35 36 36 36 35 34 34
37 39 40 37 35 33 30 29 29 25 18 13 11 10 9 9 10 11 12 13 12 11 11 11 12 13 13 14 14 14 16 16 17 17 16 16 19 21 22 21 22 22 22 21 20 19 19 20 20 21 22 22 22 22 22 22 22 22 22 23 24 25 26 28 29 31 32 34 35 36 36 37 37 37 36 36 37 36 35 35 37 37 37 37 36 36
38 38 39 39 38 36 32 30 30 25 19 17 15 13 12 11 11 10 10 11 10 10 10 11 12 12 13 13 14 14 15 16 17 18 18 19 21 22 23 23 23 22 22 21 20 19 19 19 20 21 22 22 21 21 22 22 21 21 22 23 24 25 27 29 30 32 34 35 37 37 38 39 39 38 38 38 39 38 38 38 38 38 38 39 39 37
40 40 39 39 39 38 34 32 32 29 25 21 19 17 17 15 13 12 11 11 11 10 11 12 13 13 14 14 15 16 16 18 19 19 20 21 22 23 24 24 23 22 21 21 19 18 18 19 20 21 21 21 21 21 21 21 21 22 22 23 24 26 28 30 31 33 35 37 39 40 41 42 42 42 42 42 42 41 41 41 40 40 40 41 41 40
41 41 40 40 40 39 38 35 33 29 26 23 20 20 19 17 15 14 13 13 13 13 13 13 13 13 13 14 16 16 18 19 20 20 21 22 22 23 24 23 23 22 21 20 19 18 19 20 20 21 21 20 19 20 21 22 22 22 23 23 25 27 29 31 33 35 37 39 41 43 44 45 46 46 46 45 44 44 43 43 42 42 41 41 42 41
43 42 42 43 43 42 40 38 34 30 28 26 24 23 21 19 17 16 16 17 16 15 16 15 14 14 14 15 16 17 19 20 21 21 22 23 24 24 23 22 22 21 20 20 19 19 20 21 21 22 21 19 19 21 22 23 23 24 24 25 27 29 30 32 34 36 38 40 42 44 46 47 48 48 48 48 47 46 45 44 43 43 42 42 42 42
46 45 44 45 44 42 41 39 35 32 31 29 27 26 23 22 20 18 19 20 18 16 15 15 15 16 16 17 18 19 20 21 21 22 23 24 24 24 23 22 22 21 20 20 20 21 22 23 23 22 21 20 21 23 24 24 25 26 26 27 28 30 31 33 35 37 39 41 43 44 46 48 49 49 50 49 49 48 46 45 44 44 43 43 43 43
47 48 47 46 45 44 43 40 38 36 34 30 28 28 26 24 22 21 22 23 19 16 16 16 16 17 18 18 19 19 21 22 22 22 23 24 24 24 24 23 23 22 21 21 21 23 24 25 25 23 21 22 23 24 25 26 27 28 29 29 30 32 34 36 39 41 42 43 44 45 47 49 50 51 51 50 50 49 48 46 45 44 43 43 43 43
49 48 48 48 48 46 44 43 42 40 33 28 28 28 26 24 24 24 25 23 18 16 18 18 18 19 20 21 21 21 21 22 22 22 23 24 25 25 25 25 25 24 22 21 21 24 26 27 25 22 22 24 24 25 26 27 29 29 30 32 33 35 37 39 41 43 44 44 45 46 48 50 52 52 52 52 51 50 49 47 45 44 43 43 43 43
50 50 50 50 50 49 47 46 44 38 29 26 28 29 27 27 27 27 27 24 20 20 21 21 22 22 23 23 23 23 22 22 23 23 23 24 25 26 26 27 26 25 22 21 23 27 29 27 24 22 25 26 25 26 27 28 30 31 31 32 33 35 37 40 41 43 44 44 45 47 50 52 53 54 54 53 52 51 49 47 46 45 44 44 44 44
53 53 53 53 51 49 48 47 44 37 32 32 34 34 32 31 31 30 28 26 26 26 25 24 24 25 25 25 24 24 24 24 23 23 24 25 26 27 27 27 26 24 22 23 27 30 29 26 24 25 28 28 26 27 29 30 31 32 32 33 34 36 38 40 41 43 45 46 48 50 53 54 55 56 56 55 54 52 50 48 46 46 45 45 45 45
56 54 53 53 51 50 49 48 45 42 40 39 39 37 35 34 33 32 31 29 29 29 27 25 25 26 26 26 26 25 25 24 24 24 25 25 27 27 27 26 26 25 25 28 30 30 28 27 28 30 30 28 27 29 31 32 34 34 34 35 36 39 40 41 43 46 47 49 52 54 55 56 56 57 56 55 54 52 50 49 48 48 48 48 47 46
58 55 54 52 51 52 52 51 50 48 45 41 39 37 35 34 33 34 33 32 31 29 27 26 27 27 28 28 27 26 25 24 25 25 25 26 27 28 28 29 29 30 31 32 32 31 31 31 32 32 31 29 30 31 33 34 35 35 36 37 39 40 42 43 46 48 50 53 56 57 58 57 57 57 56 55 53 52 50 50 50 50 50 49 49 49
57 55 54 52 51 52 52 50 48 46 42 38 37 35 34 33 34 33 33 32 31 30 28 28 28 28 28 28 26 25 25 25 26 26 27 28 28 29 29 30 31 32 33 33 32 32 33 33 33 32 32 31 32 33 34 36 36 37 39 40 41 42 44 46 49 51 52 56 59 59 58 58 57 56 56 55 53 52 51 51 52 52 51 51 50 50
58 55 54 53 51 51 50 47 43 41 38 36 35 35 34 34 35 34 32 31 31 30 29 28 28 28 27 26 25 25 27 28 28 29 29 28 28 29 30 30 31 32 32 32 33 33 33 33 33 33 33 34 34 35 36 37 38 39 41 42 43 45 47 49 51 53 56 59 61 60 58 57 57 56 54 53 53 52 53 53 54 54 53 52 50 49
59 58 56 55 52 51 50 47 43 41 40 38 36 35 36 36 37 36 35 33 32 31 30 29 28 27 26 26 26 27 29 30 30 29 29 29 30 31 31 30 30 31 31 32 32 33 33 33 33 34 35 36 37 37 38 39 41 42 43 45 47 49 50 52 54 57 59 62 61 59 58 57 56 55 54 53 53 53 54 55 55 54 52 50 48 46
57 58 58 56 55 54 52 49 45 43 41 38 37 37 37 37 38 38 38 35 33 31 30 29 29 28 28 27 28 29 29 30 29 28 29 31 32 32 31 30 30 30 30 31 31 32 32 33 34 35 37 38 39 39 40 41 44 46 48 49 51 52 53 55 57 60 62 63 61 59 58 57 56 55 55 54 54 55 55 54 52 49 46 45 44 44
Wind_Direction
129 118 101 97 99 102 100 96 103 114 118 114 109 106 105 104 104 107 111 115 114 107 103 98 93 85 64 32 18 23 20 18 20 19 16 6 358 353 351 352 351 352 355 356 357 353 351 355 358 358 352 346 342 339 337 337 337 336 335 333 333 333 329 324 324 329 335 337 334 334 337 341 348 351 351 349 348 348 349 349 348 347 345 341 340 342
125 110 92 88 99 106 103 98 99 107 112 112 112 112 109 108 110 114 117 118 114 106 94 82 73 63 37 16 15 20 15 12 11 11 14 8 5 6 356 356 1 6 13 14 12 11 11 11 6 1 357 354 350 344 342 340 338 339 340 340 343 343 336 332 337 345 349 344 339 341 346 352 359 358 354 351 351 350 350 351 352 351 348 346 347 349
92 74 77 84 107 116 108 102 103 109 111 111 113 114 112 115 118 114 111 112 109 96 76 59 44 20 6 1 3 7 4 5 9 18 23 13 13 20 8 11 20 23 28 24 18 20 18 12 8 7 5 359 351 345 345 347 350 357 360 1 3 1 352 350 357 358 353 347 345 350 358 5 6 2 357 354 353 351 349 351 353 351 349 348 350 352
85 57 66 75 129 134 117 104 103 109 111 112 113 116 123 133 135 122 112 107 94 77 51 21 10 360 350 346 349 354 3 20 40 50 50 28 18 28 24 29 34 33 33 27 22 23 17 12 13 13 8 359 353 357 6 14 19 25 25 23 20 19 13 9 5 358 355 353 357 5 10 13 11 6 0 356 353 349 345 347 348 347 345 345 347 347
104 98 76 69 112 135 128 114 109 108 105 105 105 114 126 135 137 127 121 107 70 52 11 344 29 25 355 348 352 360 14 32 53 66 67 49 35 39 40 40 41 38 36 31 27 24 17 16 21 18 11 6 9 23 34 38 39 39 38 33 29 25 18 11 2 358 2 6 10 13 15 15 14 8 1 356 351 346 342 341 342 341 340 340 341 342
105 98 81 77 95 123 133 121 112 109 104 102 101 111 119 124 126 120 117 95 54 29 5 8 95 69 17 8 13 16 24 31 49 61 60 52 47 47 43 39 39 39 39 38 34 29 26 28 28 23 18 19 29 42 47 48 47 46 43 38 33 26 17 10 6 7 13 14 13 14 14 14 13 8 1 354 348 343 340 337 336 336 336 337 338 339
112 102 94 93 99 121 132 123 117 112 109 107 99 95 100 110 118 118 110 87 69 50 37 40 61 52 26 21 22 22 29 35 46 50 47 49 48 46 44 38 36 41 46 49 46 40 36 34 32 28 26 31 42 47 50 51 49 47 44 38 32 25 18 15 15 17 19 16 13 12 12 13 12 7 1 354 345 341 339 337 335 334 334 335 336 336
116 111 107 103 108 119 120 117 113 107 109 111 98 86 89 106 118 118 105 84 78 68 60 50 39 37 29 25 29 34 40 44 49 49 48 50 46 45 49 44 41 49 56 58 53 42 36 34 33 29 31 40 46 46 46 45 44 43 40 34 29 24 20 19 20 22 21 18 14 11 11 12 10 6 1 356 349 342 338 336 334 333 332 332 332 333
130 125 119 114 118 117 109 106 101 98 106 107 101 95 96 109 117 116 102 82 74 64 54 38 28 28 21 28 41 49 51 53 53 51 51 52 51 51 56 56 55 59 62 61 52 40 34 33 30 27 31 41 44 43 42 40 39 38 34 29 24 22 20 20 20 22 22 19 16 13 12 10 8 5 1 359 356 349 343 338 335 333 331 331 332 333
152 140 131 127 124 119 110 103 98 97 105 107 105 103 103 112 117 115 103 84 77 74 56 31 24 22 22 34 44 49 51 53 51 52 50 49 54 55 59 64 64 65 63 57 48 39 34 30 25 22 26 34 38 39 38 37 35 32 30 26 21 19 19 19 19 19 19 18 16 14 12 10 8 5 2 1 359 355 350 346 343 340 338 338 338 337
169 153 141 139 130 123 121 120 114 103 99 106 109 107 109 112 113 114 109 100 95 83 66 41 22 22 38 41 42 45 48 49 51 55 53 49 52 54 60 67 67 65 60 50 41 36 33 27 20 16 17 22 27 29 31 31 29 27 27 24 21 20 19 19 18 16 15 14 14 12 11 9 6 3 2 360 358 355 353 351 349 347 347 346 345 343
183 172 153 148 137 132 132 127 125 115 108 114 118 116 116 114 114 116 114 113 111 87 71 54 24 29 53 48 42 47 50 54 59 61 57 53 50 48 54 61 62 58 51 41 34 31 29 24 20 18 17 19 21 21 21 22 22 21 20 20 19 19 19 19 18 16 14 13 11 10 9 8 6 3 360 358 357 354 352 351 350 349 349 348 347 346
193 186 174 165 146 142 143 130 133 133 124 126 129 123 118 116 117 115 110 104 97 88 77 64 40 56 69 59 49 52 56 60 65 67 62 55 49 43 43 49 51 46 41 36 30 26 24 22 23 26 27 28 29 27 25 23 22 20 18 16 16 16 16 16 16 15 14 13 11 9 8 7 6 3 360 357 355 352 350 350 349 348 347 346 345 344
194 187 191 194 168 155 165 153 148 146 139 140 136 123 114 113 115 113 113 105 94 94 93 78 66 76 74 61 54 54 53 56 62 66 65 54 49 43 39 43 44 38 38 39 32 24 20 22 28 35 37 39 39 37 34 32 29 26 22 19 18 18 17 16 15 14 13 13 11 8 7 7 5 3 360 357 354 351 350 349 347 346 345 343 343 342
193 190 199 206 191 175 183 175 162 157 149 144 127 116 114 113 113 111 105 99 96 101 102 90 76 75 69 54 50 51 50 53 59 65 68 61 53 47 45 50 47 42 46 45 37 26 20 24 32 39 43 44 43 41 39 36 34 31 28 26 24 23 21 20 18 16 14 13 13 10 8 6 6 4 0 357 353 351 349 348 347 344 343 342 341 341
197 203 204 206 202 190 195 195 179 166 156 152 132 113 115 111 108 100 89 92 100 100 92 84 77 73 69 56 52 53 52 55 61 66 69 66 57 48 46 52 52 49 48 47 41 29 23 25 33 39 41 42 42 39 37 35 33 30 28 26 25 23 22 20 18 16 14 13 12 12 10 8 6 4 1 357 353 351 349 348 346 344 342 341 340 340
198 203 202 203 202 190 192 200 188 170 164 170 169 130 118 110 103 100 94 92 92 87 80 82 83 77 72 62 56 57 59 64 68 66 63 61 54 45 41 46 47 45 43 43 38 29 24 24 27 33 34 34 34 31 29 27 24 22 21 19 18 17 16 14 13 11 9 8 8 8 8 6 4 2 359 356 353 351 350 347 345 344 342 341 341 340
201 198 197 200 197 186 186 187 185 186 183 179 168 146 134 122 107 107 105 95 83 80 86 92 91 84 75 64 60 65 70 73 74 72 66 60 52 42 35 35 37 38 35 30 26 20 18 18 17 19 21 21 21 19 16 13 12 10 9 9 8 7 7 6 5 4 3 1 1 1 2 1 360 358 355 353 351 350 348 346 344 342 341 341 341 341
203 200 202 203 190 178 179 174 176 185 187 186 176 161 152 142 137 149 139 118 98 83 93 100 94 87 83 77 72 74 78 81 80 78 75 71 63 50 38 33 34 35 30 21 13 4 359 1 1 360 2 4 6 6 4 1 359 358 358 358 358 358 358 359 358 358 357 356 355 354 355 355 354 353 351 349 348 347 346 344 342 340 338 338 339 340
204 198 204 210 195 180 177 176 177 179 185 196 190 181 175 168 165 170 174 151 126 109 104 95 85 84 97 100 92 83 85 89 86 83 81 78 74 65 51 38 32 31 26 17 7 357 347 344 341 340 344 348 352 354 355 355 353 352 351 350 351 352 352 353 354 354 354 353 352 350 350 350 349 348 347 346 345 345 344 342 340 338 336 336 337 338
204 200 207 211 199 186 186 190 188 186 198 206 197 193 190 185 182 177 185 181 151 150 149 106 87 180 145 121 114 96 91 92 87 81 77 71 65 61 53 37 25 21 17 10 4 355 346 340 334 331 334 337 342 344 347 351 351 350 348 347 348 349 350 351 351 352 352 351 350 349 347 347 346 345 344 343 342 341 341 339 338 337 336 335 335 335
207 205 210 210 200 195 198 203 201 198 208 214 208 206 200 194 190 178 181 214 196 177 178 151 145 197 170 146 129 105 93 93 83 75 71 64 54 43 30 20 12 8 6 1 357 351 343 337 332 328 330 332 335 339 343 346 347 346 346 347 348 348 349 350 350 350 350 350 349 347 346 344 343 342 340 339 338 338 337 337 336 335 334 333 332 331
209 209 213 213 210 209 206 207 211 210 217 222 215 213 208 201 197 183 181 213 209 194 191 186 200 219 203 198 158 112 95 93 80 66 56 45 30 16 1 354 351 351 353 350 347 342 337 334 329 324 324 326 329 334 337 339 339 339 340 343 346 347 347 347 347 347 347 348 347 345 344 342 340 339 337 336 335 334 334 334 333 333 332 330 329 328
204 208 212 216 219 220 213 211 216 217 220 224 216 212 215 212 209 203 196 199 198 198 196 181 231 255 242 235 217 155 92 79 67 44 24 5 354 350 343 337 334 332 338 340 339 336 331 330 328 324 323 323 325 328 330 332 334 335 336 338 341 342 343 343 343 343 343 343 342 341 340 339 338 336 335 334 333 332 331 331 331 331 330 329 328 328
205 208 210 215 221 225 223 219 221 221 218 218 209 205 216 221 214 205 199 194 190 196 195 172 194 249 253 258 250 248 288 326 351 354 352 343 338 337 332 328 323 320 322 328 334 335 331 327 324 322 322 322 323 324 326 328 330 332 333 335 337 338 338 338 338 338 337 337 336 336 335 334 333 333 332 331 330 329 329 328 328 328 328 328 328 327
211 210 211 217 222 229 235 235 231 224 210 202 196 193 206 215 206 196 192 187 180 185 192 185 201 235 251 266 265 269 284 284 300 322 325 326 327 327 328 326 321 317 314 317 324 330 331 327 323 321 321 320 320 321 322 324 326 328 330 332 334 335 335 335 334 334 333 332 332 331 331 330 329 329 329 328 327 326 326 325 325 325 325 326 326 326
213 209 208 215 221 228 236 235 229 224 214 200 193 194 200 202 201 197 188 181 179 183 190 192 204 229 245 258 264 270 275 279 291 303 308 313 317 319 323 324 322 319 314 312 316 322 327 328 325 323 321 320 319 319 320 321 323 325 329 331 332 332 333 333 332 331 331 331 330 329 329 329 328 327 327 326 325 324 323 322 321 321 322 322 323 323
216 211 207 209 216 221 222 218 217 221 219 205 199 203 205 203 204 198 188 189 192 187 189 197 203 225 244 249 256 265 271 278 287 293 298 303 307 310 315 318 319 320 318 314 314 318 322 325 324 323 321 320 320 320 320 321 323 326 328 330 330 330 331 331 332 332 332 331 330 329 329 329 329 328 328 327 326 325 323 322 321 320 320 320 321 321
217 216 211 211 218 224 224 221 218 218 217 213 212 216 217 215 212 201 195 200 200 193 202 207 198 215 243 246 252 261 268 277 284 288 292 296 301 305 307 311 314 317 319 318 316 317 319 320 321 321 321 321 320 319 320 321 323 325 327 328 330 331 331 333 334 334 334 333 331 330 329 329 329 329 329 329 328 326 325 324 322 321 321 320 320 320
218 218 216 215 220 225 226 225 224 221 220 222 224 226 225 222 218 210 205 207 205 205 215 214 204 220 240 245 256 266 268 274 281 285 289 293 298 302 304 307 311 314 317 318 317 315 315 316 317 318 319 319 317 316 317 318 320 322 326 329 332 333 334 335 336 336 336 334 333 332 332 331 330 330 329 329 328 327 326 325 323 322 321 321 320 320
218 217 218 219 222 225 226 226 226 224 227 231 231 230 229 226 223 219 215 215 213 215 223 221 216 231 243 250 270 280 277 277 281 283 286 290 294 297 300 304 308 310 311 312 312 311 311 312 313 315 315 315 315 314 314 315 318 322 327 331 334 335 336 336 337 337 337 336 335 335 334 333 332 331 330 329 328 327 326 325 323 322 321 321 321 320
219 219 220 223 228 230 228 229 231 230 233 236 234 233 234 230 227 223 221 222 222 223 228 229 226 237 249 260 279 287 288 287 285 283 282 285 289 292 299 306 308 307 306 307 309 309 308 309 310 312 314 314 315 317 318 319 321 324 328 331 334 335 337 337 338 338 338 338 337 336 334 333 332 332 331 331 329 328 326 324 322 321 320 321 321 321
221 221 222 225 230 235 233 233 235 235 236 236 231 231 233 230 226 224 221 222 224 226 231 236 239 247 257 266 275 284 289 290 289 285 281 285 290 293 299 307 309 309 308 308 310 309 306 306 308 312 314 316 318 322 324 325 326 327 329 331 334 335 337 338 339 339 339 338 337 336 334 333 332 331 331 330 329 328 326 324 322 319 319 319 320 320
222 222 224 225 229 235 236 236 238 238 235 231 225 229 236 233 228 226 223 223 227 228 231 239 248 254 261 265 270 277 283 286 288 286 284 290 294 295 299 305 308 309 309 310 311 309 303 303 309 314 316 318 321 324 327 327 327 328 330 332 333 334 336 338 339 339 339 338 337 336 334 332 331 330 329 328 327 326 325 324 322 320 319 319 319 317
222 222 224 225 227 232 234 234 238 239 232 221 217 226 235 237 233 229 227 228 232 235 240 248 255 259 263 267 271 275 278 281 283 283 285 291 294 295 299 305 307 307 307 307 307 304 301 304 310 314 317 320 322 324 326 327 327 328 331 332 332 333 335 337 338 339 339 339 338 337 335 333 331 329 328 327 325 325 324 322 322 321 321 321 320 318
222 223 226 227 228 232 232 232 237 237 228 216 219 225 231 240 240 235 232 234 238 242 248 255 261 265 269 272 274 275 276 278 281 284 287 291 293 295 299 303 305 305 304 303 301 299 299 304 310 313 317 319 320 323 325 327 327 328 329 330 330 332 334 337 338 339 340 340 340 339 337 334 332 329 327 325 324 324 323 321 320 320 319 320 321 320
222 224 226 227 230 232 234 235 237 237 230 223 223 229 237 246 249 246 241 241 243 246 252 258 264 269 273 275 276 276 276 278 281 284 288 289 291 295 298 300 302 302 300 298 296 295 298 303 308 312 314 315 317 321 324 325 325 325 326 327 329 331 335 336 337 338 339 339 339 339 338 336 334 331 329 327 325 325 324 322 322 321 320 320 320 320
222 224 225 226 230 232 233 235 237 236 231 224 224 233 242 247 251 251 250 250 253 256 261 265 269 272 273 274 275 276 277 278 280 283 285 288 291 294 296 298 299 299 296 294 293 295 298 302 307 310 312 313 315 318 321 321 320 320 323 325 327 331 334 335 336 338 339 339 339 338 337 336 335 334 332 329 327 326 324 323 322 321 321 320 319 319
223 226 227 227 229 230 232 234 236 235 231 227 230 239 243 245 248 252 256 259 260 262 265 267 270 272 272 272 274 276 279 280 282 285 287 289 292 293 294 296 296 295 293 292 293 296 300 304 307 310 311 311 313 316 318 316 315 317 320 322 325 329 332 333 335 337 338 338 338 337 336 335 334 333 332 329 327 325 323 321 320 319 318 318 317 317
222 224 227 228 229 229 232 235 237 237 235 235 239 242 241 243 246 250 257 261 261 262 265 266 268 270 271 273 275 278 281 284 287 290 291 292 293 293 292 291 291 292 292 291 294 299 303 306 309 310 310 310 312 316 316 315 314 317 319 322 324 326 328 330 332 333 333 334 334 334 334 333 332 331 329 328 326 324 321 319 318 317 316 314 313 313
223 222 224 228 231 232 233 235 237 239 236 235 240 243 242 245 249 252 258 262 261 263 266 268 270 271 271 273 275 278 282 286 289 292 292 293 294 292 291 288 287 289 290 288 292 300 304 305 307 309 310 311 313 315 315 314 315 317 319 320 320 320 321 323 324 325 326 327 327 328 329 329 329 328 327 325 324 322 319 317 316 315 314 313 311 310
223 224 225 227 230 233 235 235 237 240 237 235 240 244 243 247 252 256 261 263 263 266 270 270 271 271 271 273 276 280 283 286 290 291 292 293 294 293 291 290 289 292 289 284 289 300 305 303 303 306 309 312 313 313 314 315 316 317 316 315 313 313 314 315 316 318 321 322 323 323 324 326 326 326 325 323 322 320 317 315 314 314 313 312 310 309
220 222 225 228 231 233 235 236 237 238 236 235 241 246 248 251 255 258 260 262 263 268 271 272 271 270 271 273 276 279 283 286 288 289 290 292 293 292 292 291 290 290 284 278 286 300 304 301 300 304 309 311 311 311 313 315 315 314 312 311 310 311 312 313 315 317 319 321 321 321 321 323 324 324 323 322 320 319 317 315 314 313 313 312 310 309
219 218 220 225 229 232 235 237 239 241 242 244 248 251 253 254 254 257 259 260 260 265 271 272 271 271 271 273 274 277 281 284 286 286 288 290 291 291 290 287 284 280 273 271 284 298 302 300 297 301 307 309 309 310 313 314 313 312 312 312 312 313 315 316 319 320 321 320 320 320 320 321 322 323 322 321 319 318 316 315 314 314 314 313 312 310
224 221 219 220 223 227 232 237 242 245 247 248 249 251 253 254 255 257 259 260 263 269 274 273 271 272 273 273 274 276 278 281 283 284 285 286 288 289 288 284 280 275 269 274 287 297 299 295 291 297 303 304 305 309 312 313 314 314 313 313 314 315 317 319 321 321 321 320 320 320 321 321 322 321 321 320 319 317 316 316 316 316 315 314 313 312
228 227 226 224 221 223 227 232 237 240 241 243 247 250 253 257 260 261 262 264 268 273 275 273 272 273 274 273 274 275 276 279 281 281 282 283 285 287 285 281 279 276 275 281 289 294 293 288 288 294 298 299 302 307 311 313 313 312 312 312 314 316 318 320 321 321 321 321 321 321 321 320 320 320 319 319 318 317 317 318 318 317 316 315 313 312
228 229 230 229 225 224 225 226 229 233 235 239 244 249 252 256 261 264 266 267 269 271 272 271 271 272 273 274 274 274 275 278 279 280 281 282 283 283 281 279 278 278 280 284 288 288 287 286 288 292 294 295 299 305 309 310 310 310 310 312 315 317 318 320 320 320 320 320 321 321 320 319 319 319 318 318 318 318 318 319 318 317 315 314 312 311
228 228 231 232 229 228 228 229 230 232 233 235 241 247 252 256 260 264 266 266 266 267 269 269 270 272 273 275 275 274 275 277 279 281 282 281 280 281 280 279 279 279 281 283 285 285 285 285 288 291 292 293 297 302 306 307 307 309 311 313 315 317 318 318 318 319 319 320 321 320 319 318 318 318 318 317 317 318 318 318 317 315 313 311 310 309
229 228 230 233 232 231 232 233 233 234 234 235 240 246 252 256 260 263 265 265 265 265 266 267 269 271 273 273 275 277 279 279 281 284 284 281 278 279 280 280 280 279 279 281 282 284 285 286 288 290 291 293 298 301 304 305 308 310 312 313 315 315 316 317 318 319 319 320 320 318 317 317 317 317 316 316 317 318 319 317 315 313 311 309 308 307
229 229 230 231 232 232 232 231 233 235 237 238 242 246 250 254 256 259 262 263 262 262 263 266 268 269 269 271 277 282 285 285 285 284 282 279 278 278 279 279 280 280 280 280 282 284 286 288 290 292 294 297 300 303 306 309 311 312 312 313 313 314 315 316 318 318 319 319 318 317 316 316 316 316 316 318 318 319 318 316 313 311 310 309 308 307
227 229 230 231 231 233 233 233 235 237 239 239 242 244 247 250 253 257 260 259 258 260 262 264 266 266 268 273 280 286 289 288 285 280 278 278 279 278 278 279 281 282 282 282 284 286 289 292 294 296 298 300 303 306 309 312 313 313 313 313 313 314 315 316 317 317 317 317 316 315 315 316 316 317 318 319 318 317 315 313 311 310 310 309 309 308